Orbital Elements at Epoch 2459200.5 (2020-Dec-17.0) TDB
Reference: JPL 25 (heliocentric ecliptic J2000)
Element | Value | Uncertainty (1-sigma) | Units |
e | .1961431372100066 | 4.4408e-08 | |
a | 2.552695266928996 | 1.1018e-08 | au |
q | 2.052001608932407 | 1.1881e-07 | au |
i | 7.642494449876549 | 4.2041e-06 | deg |
node | 100.0070559302587 | 2.6477e-05 | deg |
peri | 13.86739950897052 | 2.8681e-05 | deg |
M | 321.5788765280017 | 1.3265e-05 | deg |
tp | 2459359.488036452386 (2021-May-24.98803645) | 5.5491e-05 | TDB |
period | 1489.693375691445 4.08 | 9.6443e-06 2.64e-08 | d yr |
n | .2416604691102322 | 1.5645e-09 | deg/d |
Q | 3.053388924925584 | 1.3179e-08 | au |
|
| | Orbit Determination Parameters
Additional Information
|